Simultaneous Nadir Overpasses (SNOs) Predictions

Prediction of SNOs near equator between AQUA and NPP Satellite Orbit:

Table of predicted SNOs near equator for the next 14.0 days since TLE Epoch: 8/2/2014
Index Date (AQUA) Time (AQUA) AQUA Lat,Lon Date (NPP) Time (NPP) NPP Lat,Lon Distance(km) Time Diff (sec)
1 08/04/2014 04:42:04 29.96, 128.66 08/04/2014 04:34:07 30.12, 129.49 82.24 477
2 08/04/2014 05:31:27 -29.98, -63.69 08/04/2014 05:24:48 -30.11, -63.17 51.63 399
3 08/04/2014 06:20:57 29.96, 103.94 08/04/2014 06:15:35 30.02, 104.15 21.33 322
4 08/04/2014 07:08:19 -22.71, -86.60 08/04/2014 07:04:11 -22.71, -86.59 0.59 248
5 08/04/2014 07:50:40 -3.24, 86.72 08/04/2014 07:47:38 -3.24, 86.72 0.83 182
6 08/04/2014 08:34:32 23.17,-101.20 08/04/2014 08:32:39 23.19,-101.26 6.52 113
7 08/04/2014 09:22:47 -27.72, 67.54 08/04/2014 09:22:09 -27.79, 67.24 31.17 38
8 08/04/2014 10:11:33 29.92,-124.24 08/04/2014 10:12:12 30.02,-124.83 57.98 39
9 08/04/2014 11:01:04 -29.88, 43.38 08/04/2014 11:03:00 -30.05, 42.48 88.51 116
10 08/06/2014 20:58:33 29.94,-115.46 08/06/2014 20:50:56 30.10,-114.69 75.89 457
11 08/06/2014 21:47:56 -29.96, 52.19 08/06/2014 21:41:37 -30.08, 52.64 45.34 379
12 08/06/2014 22:37:27 30.00,-140.19 08/06/2014 22:32:25 30.06,-140.05 15.03 302
13 08/06/2014 23:23:32 -18.11, 30.35 08/06/2014 23:19:42 -18.11, 30.35 0.12 230
14 08/07/2014 00:05:52 -7.91,-156.41 08/07/2014 00:03:08 -7.91,-156.41 0.53 164
15 08/07/2014 00:50:42 24.33, 14.96 08/07/2014 00:49:08 24.38, 14.86 11.97 94
16 08/07/2014 01:38:57 -28.87,-176.28 08/07/2014 01:38:39 -28.93,-176.65 35.71 18
17 08/07/2014 02:28:02 29.94, -8.35 08/07/2014 02:29:01 30.04, -9.01 64.37 59
18 08/07/2014 03:17:33 -29.90, 159.26 08/07/2014 03:19:49 -30.08, 158.30 94.88 136
19 08/09/2014 12:25:32 -29.98,-167.21 08/09/2014 12:16:58 -30.16,-166.20 99.71 514
20 08/09/2014 13:15:02 29.96, 0.42 08/09/2014 13:07:45 30.08, 1.12 69.34 437
21 08/09/2014 14:04:25 -29.97, 168.07 08/09/2014 13:58:26 -30.06, 168.46 38.65 359
22 08/09/2014 14:53:55 29.95, -24.30 08/09/2014 14:49:13 29.98, -24.22 8.25 282
23 08/09/2014 15:38:30 -12.64, 147.45 08/09/2014 15:34:58 -12.64, 147.45 0.08 212
24 08/09/2014 16:20:48 -13.51, -39.31 08/09/2014 16:18:22 -13.51, -39.32 0.63 146
25 08/09/2014 17:06:51 25.52, 131.13 08/09/2014 17:05:37 25.57, 130.97 16.80 74
26 08/09/2014 17:55:08 -29.94, -60.13 08/09/2014 17:55:09 -30.05, -60.53 40.40 1
27 08/09/2014 18:44:31 29.92, 107.52 08/09/2014 18:45:50 30.06, 106.80 70.92 79
28 08/12/2014 04:42:00 -29.96, -51.33 08/12/2014 04:33:47 -30.15, -50.39 92.98 493
29 08/12/2014 05:31:30 29.95, 116.30 08/12/2014 05:24:34 30.07, 116.94 62.57 416
30 08/12/2014 06:20:53 -29.96, -76.05 08/12/2014 06:15:15 -30.05, -75.73 32.02 338
31 08/12/2014 07:10:23 29.94, 91.58 08/12/2014 07:06:02 29.97, 91.59 2.70 261
32 08/12/2014 07:53:11 -6.17, -95.27 08/12/2014 07:49:57 -6.17, -95.26 0.91 194
33 08/12/2014 08:35:30 -19.91, 78.02 08/12/2014 08:33:22 -19.91, 78.02 0.67 128
34 08/12/2014 09:22:58 26.80,-112.67 08/12/2014 09:22:05 26.82,-112.89 21.85 53
35 08/12/2014 10:11:36 -29.89, 55.74 08/12/2014 10:11:58 -30.01, 55.27 47.16 22
36 08/12/2014 11:00:58 29.93,-136.60 08/12/2014 11:02:38 30.08,-137.38 77.68 100
37 08/14/2014 20:58:27 -29.98, 64.55 08/14/2014 20:50:35 -30.14, 65.43 86.05 472
38 08/14/2014 21:47:57 29.97,-127.82 08/14/2014 21:41:22 30.06,-127.25 55.66 395
39 08/14/2014 22:37:20 -29.98, 39.83 08/14/2014 22:32:03 -30.04, 40.08 24.98 317
40 08/14/2014 23:25:37 25.58,-151.43 08/14/2014 23:21:35 25.57,-151.42 0.79 242
41 08/15/2014 00:08:08 -0.75, 21.77 08/15/2014
